小惑星2011 SQ55

2011 SQ55

English version
Home page
Updated on January 23, 2012

---------------------------------------------------------------------

・ プロフィール

・ 軌道要素

The following orbital elements are taken from MPO210018

Epoch 2012 Mar. 14.0 TT = JDT 2456000.5                 MPC
M  14.52799              (2000.0)            P               Q
n   0.06387633     Peri.  328.46561     +0.97466400     +0.16425693
a   6.1978743      Node    23.56030     -0.01529525     +0.72611765
e   0.6510377      Incl.   22.32286     -0.22315051     +0.66766221
P  15.4            H   18.2           G   0.15           U   5
From 15 observations 2011 Sept. 23-Oct. 19, mean residual 0".20.

・ 光度変化

        H = 18.2  G = 0.15

---------------------------------------------------------------------

軌道要素はMPCのEphemerides and Orbital Elementsに掲載されたものです。
光度グラフはComet for Windowsで作成したものです。

---------------------------------------------------------------------

Copyright(C) Seiichi Yoshida (comet@aerith.net). All rights reserved.